This demonstration page uses our WeatherBlox Daily Observations layout. Learn more.

Left ArrowRight Arrow

39.92423, -83.80882

Hourly Observations for January 16, 2015

Temp ( °F °C ) Dew Point ( °F °C ) Humidity (%) Winds ( mph kmh ) Pressure ( in mb ) Visibility ( mi km ) Precip ( " mm )
12:56 am 00:56 Clear 29 -1.6 22 -5.5 75 75 SW 16 26 30.08 1019 8 13 0.00 0.00
1:56 am 01:56 Clear 28 -2.2 21 -6.1 75 75 SW 16 26 30.06 1018 8 13 0.00 0.00
2:56 am 02:56 Clear 27 -2.7 22 -5.5 81 81 SW 15 24 30.08 1019 8 13 0.00 0.00
3:56 am 03:56 Clear 26 -3.3 23 -5 88 88 SW 13 20 30.08 1019 7 11 0.00 0.00
4:56 am 04:56 Partly Cloudy 27 -2.7 24 -4.4 88 88 WSW 12 19 30.09 1019 7 11 0.00 0.00
5:04 am 05:04 Mostly Cloudy 27 -3 25 -4 93 93 SW 12 19 30.12 1020 7 11 0.00 0.00
5:56 am 05:56 Cloudy 28 -2.2 25 -3.8 89 89 WSW 12 19 30.11 1020 7 11 0.00 0.00
6:56 am 06:56 Cloudy with Mist and Fog 28 -2.2 25 -3.8 89 89 WSW 15 24 30.13 1020 6 10 0.00 0.00
7:42 am 07:42 Cloudy with Mist and Fog 27 -3 25 -4 93 93 SW 9 15 30.21 1023 6 10 0.00 0.00
7:56 am 07:56 Cloudy with Mist and Fog 27 -2.7 25 -3.8 92 92 SW 8 13 30.17 1022 4 6 0.00 0.00
8:16 am 08:16 Partly Cloudy with Mist and Fog 27 -3 25 -4 93 93 WSW 10 17 30.24 1024 4 6 0.00 0.00
8:56 am 08:56 Sunny with Mist and Fog 26 -3.3 24 -4.4 92 92 WSW 10 17 30.19 1023 3 5 0.00 0.00
9:56 am 09:56 Sunny with Mist and Fog 29 -1.6 25 -3.8 85 85 WSW 10 17 30.21 1023 4 6 0.00 0.00
10:56 am 10:56 Cloudy with Haze 31 -0.5 26 -3.3 82 82 SW 8 13 30.24 1024 5 8 0.00 0.00
11:56 am 11:56 Cloudy with Haze 32 0 27 -2.7 82 82 SW 8 13 30.22 1024 6 10 0.00 0.00
12:56 pm 12:56 Cloudy with Haze 34 1.1 27 -2.7 76 76 SW 8 13 30.20 1023 6 10 0.00 0.00
1:56 pm 13:56 Mostly Cloudy with Haze 35 1.6 28 -2.2 76 76 SSW 7 11 30.19 1022 6 10 0.00 0.00
2:56 pm 14:56 Cloudy 37 2.7 28 -2.2 70 70 SW 7 11 30.18 1022 7 11 0.00 0.00
3:56 pm 15:56 Mostly Cloudy 37 2.7 27 -2.7 68 68 S 3 6 30.19 1022 7 11 0.00 0.00
4:56 pm 16:56 Cloudy 37 2.7 27 -2.7 68 68 S 5 7 30.20 1023 8 13 0.00 0.00
5:56 pm 17:56 Mostly Cloudy 34 1.1 27 -2.7 76 76 S 3 6 30.22 1023 8 13 0.00 0.00
6:56 pm 18:56 Clear 31 -0.5 26 -3.3 82 82 S 3 6 30.23 1024 8 13 0.00 0.00
7:56 pm 19:56 Clear 27 -2.7 24 -4.4 88 88 SSE 3 6 30.26 1025 7 11 0.00 0.00
8:56 pm 20:56 Clear with Mist and Fog 25 -3.8 23 -5 91 91 SE 7 11 30.24 1024 6 10 0.00 0.00
9:56 pm 21:56 Clear with Mist and Fog 26 -3.3 25 -3.8 96 96 SSE 7 11 30.23 1024 5 8 0.00 0.00
10:56 pm 22:56 Clear with Mist and Fog 27 -2.7 26 -3.3 96 96 SSE 8 13 30.22 1024 4 6 0.00 0.00
11:56 pm 23:56 Clear with Mist and Fog 25 -3.8 24 -4.4 96 96 SSE 5 7 30.22 1023 3 5 0.00 0.00

Powered by AerisWeather